Regional Weather Roundup
Issued by NWS Bismarck, ND

Home | Current Version | Previous Version | Text Only | Print | Product List | Glossary On
Versions: 1 2 3 4 5 6 7 8 9 10 11 12 13 14 15 16 17 18 19 20 21 22 23 24 25 26 27 28 29 30 31 32 33 34 35 36 37 38 39 40 41 42 43 44 45 46 47 48 49 50
000
ASUS43 KBIS 221010
RWRBIS

NWR BROADCAST TEXT
NATIONAL WEATHER SERVICE BISMARCK ND
400 AM CST SUN JAN 22 2017

NOTE: "FAIR" INDICATES FEW OR NO CLOUDS BELOW 12,000 FEET WITH NO
SIGNIFICANT WEATHER AND/OR OBSTRUCTIONS TO VISIBILITY.


CITY           SKY/WX    TMP DP  RH WIND       PRES   REMARKS
WILLISTON      CLOUDY    30  28  92 W12       29.69R
MINOT          CLOUDY    32  28  85 W10       29.63R
MINOT AFB      NOT AVBL
BISMARCK       CLOUDY    26  24  92 W3        29.69R FOG
DICKINSON      FAIR      13  10  88 NW7       29.67R WCI   3
GARRISON         N/A     29  27  92 W12       29.64R WCI  19
HETTINGER ARPT FAIR      19  15  84 NW9       29.69R WCI   8
JAMESTOWN      CLOUDY    30  28  92 W13       29.64R FOG     WCI  20
CARRINGTON     CLOUDY    28  28 100 NW8       29.66R FOG
HAZEN          CLOUDY   N/A N/A N/A W10       29.70R
MANDAN         CLOUDY    25  25 100 W12       29.69R WCI  14
RUGBY            N/A     28  28 100 W15       29.63R WCI  17
STANLEY        CLOUDY    30  30 100 W14       29.66R FOG     WCI  20
TIOGA          CLOUDY    28  28 100 W15       29.67R FOG     WCI  17
WATFORD CITY   CLOUDY    28  28 100 W9        29.69R WCI  20
$$

CITY           SKY/WX    TMP DP  RH WIND       PRES   REMARKS
GRAND FORKS    CLOUDY    34  32  92 W3        29.64R FOG
GRAND FORKS AF CLOUDY    32  32 100 W5        29.64R FOG
DEVILS LAKE    CLOUDY    30  28  92 W10       29.64R FOG
FARGO          FOG       36  33  89 NW3       29.64R VSB 1/2
CAVALIER       FOG       32  32 100 CALM      29.64R VSB 1
GRAFTON        CLOUDY    32  32 100 SW3       29.66R FOG
GWINNER        CLOUDY    34  34 100 W8        29.66R
ROLLA            N/A    N/A N/A N/A MISG        N/A
$$

CITY           SKY/WX    TMP DP  RH WIND       PRES   REMARKS
ABERDEEN       CLOUDY    28  25  88 W7        29.69R
MOBRIDGE       FAIR      14  10  84 N6        29.67R WCI   5
BUFFALO          N/A     23  19  85 NW7       29.64R WCI  15
RAPID CITY     FAIR      27  20  75 NW8       29.72R WCI  19
GLASGOW        CLOUDY    26  25  96 NW12      29.73R FOG     WCI  16
SIDNEY         CLOUDY    27  24  89 NW9       29.72R FOG     WCI  18
WOLF POINT     CLOUDY    27  24  89 SW6       29.74R
GLENDIVE       CLOUDY    22  19  89 E3        29.74R
MILES CITY     FAIR      13  10  88 SW7       29.76R WCI   3
BAKER          FAIR      18  15  88 W14       29.72R WCI   4
$$

CITY           SKY/WX    TMP DP  RH WIND       PRES   REMARKS
BILLINGS       FAIR      28  19  69 SW15      29.77R WCI  16
GREAT FALLS    CLOUDY    24  18  77 SW3       29.78R
REGINA         FLURRIES  25  23  93 NW7       29.65R WCI  17
ESTEVAN        CLOUDY    27  27 100 NW15      29.65R WCI  15
$$




USA.gov is the U.S. government's official web portal to all federal, state and local government web resources and services.